Regional Weather Roundup
Issued by NWS Wakefield, VA

Home | Current Version | Previous Version | Graphics & Text | Print | Product List | Glossary On
Versions: 1 2 3 4 5 6 7 8 9 10 11 12 13 14 15 16 17 18 19 20 21 22 23 24 25 26 27 28 29 30 31 32 33 34 35 36 37 38 39 40 41 42 43 44 45 46 47 48 49 50
000
ASUS41 KAKQ 231814
RWRAKQ

REGIONAL WEATHER ROUNDUP
NATIONAL WEATHER SERVICE WAKEFIELD VA
200 PM EDT SAT MAY 23 2015

Note: "fair" indicates few or no clouds below 12,000 feet with no
significant weather and/or obstructions to visibility. * = Denotes
station may not report precipitation (e.g., rain,snow,etc.),
thunder or fog.

VAZ042-051-052>054-056-231900-
NORTHERN VIRGINIA

CITY           SKY/WX    TMP DP  RH WIND       PRES   REMARKS
WASH NATIONAL  MOSUNNY   72  34  24 E5        30.44F
DULLES         MOSUNNY   68  34  28 VRB5      30.43F
FORT BELVOIR   SUNNY     71  31  23 W8        30.43F
QUANTICO       SUNNY     67  34  29 S6        30.45F
FREDERICKSBRG* SUNNY     71  37  28 CALM      30.44F
STAFFORD*      SUNNY     70  31  23 NW6       30.48F
WARRENTON      SUNNY     71  38  30 CALM      30.43F
CULPEPER*      SUNNY     68  35  28 CALM      30.44F
MANASSAS*      SUNNY     68  34  28 CALM      30.44F
LEESBURG*      SUNNY     70  36  28 CALM      30.44F
WINCHESTER     SUNNY     70  28  21 SE8       30.43F
FRONT ROYAL*   FAIR      68  41  37 CALM      30.41F
LURAY*         FAIR      72  41  33 SE3       30.42F
$$

VAZ048-049-060>072-079>083-231900-
CENTRAL AND SOUTH CENTRAL VIRGINIA

CITY           SKY/WX    TMP DP  RH WIND       PRES   REMARKS
RICHMOND       MOSUNNY   73  36  25 N5        30.44F
CHESTERFIELD*  NOT AVBL
PETERSBURG*    SUNNY     72  35  25 CALM      30.45F
HANOVER        SUNNY     70  36  28 CALM      30.46F
TAPPAHANNOCK*  SUNNY     71  23  16 N7        30.46S
QUINTON*       FAIR      69  36  29 CALM      30.45F
CHARLOTTSVILLE SUNNY     70  40  33 MISG      30.43F
GORDONSVILLE*  FAIR      69  40  34 SW5       30.43F
ORANGE*        SUNNY     72  39  30 CALM      30.45F
LOUISA*        SUNNY     70  39  32 NE6       30.43F
BUMPASS*       FAIR      70  40  34 NW3       30.44F
FARMVILLE*     SUNNY     72  40  30 CALM      30.42F
CREWE*         FAIR      70  38  31 CALM      30.44F
FORT PICKETT*  FAIR      72  43  35 CALM      30.44F
CHASE CITY*    FAIR      74  47  38 CALM      30.44F
CLARKSVILLE*   FAIR      70  43  37 CALM      30.44S
SOUTH HILL*    SUNNY     71  43  36 CALM      30.50S
LAWRENCEVILLE* FAIR      72  43  35 CALM      30.44S
EMPORIA*       SUNNY     72  43  35 NW3       30.45F
$$

VAZ088>098-231900-
SOUTHEAST VIRGINIA

CITY           SKY/WX    TMP DP  RH WIND       PRES   REMARKS
NORFOLK        SUNNY     67  43  41 NE12      30.45S
VIRGINIA BEACH MOSUNNY   68  45  43 VRB6      30.44F
NORFOLK NAVAL  MOSUNNY   73  44  35 NE8       30.46F
WEST POINT*    SUNNY     73  25  16 W3        30.46F
SALUDA*        FAIR      65  43  44 E10G16    30.45S
NEWPORT NEWS   SUNNY     73  44  35 E10       30.45F
LANGLEY AFB    SUNNY     67  46  46 E8G17     30.44F
FORT EUSTIS    SUNNY     71  47  43 VRB6      30.42F
WILLIAMSBURG*  SUNNY     75  45  33 NE5       30.45F
HR EXEC AP*    FAIR      73  45  35 NE5       30.46S
FRANKLIN*      SUNNY     73  43  33 NE7       30.43F
WAKEFIELD      SUNNY     73  39  29 N6        30.44F
$$

VAZ020-022-025-037-045-231900-
WEST CENTRAL AND SOUTHWEST VIRGINIA

CITY           SKY/WX    TMP DP  RH WIND       PRES   REMARKS
STAUNTON*      MOSUNNY   70  42  36 SE5       30.43F
WAYNESBORO*    FAIR      68  45  43 CALM      30.43F
HOT SPRINGS VA MOSUNNY   63  45  51 SW10G16   30.46F
LYNCHBURG      SUNNY     71  44  37 SW7       30.45F
DANVILLE       SUNNY     73  44  35 CALM      30.44F
SOUTH BOSTON*  FAIR      71  41  33 CALM      30.44F
MARTINSVILLE   SUNNY     75  46  35 E6        30.45F
ROANOKE        MOSUNNY   72  48  42 SE8       30.45F
BLACKSBURG     MOSUNNY   68  49  51 E5        30.48F
DUBLIN*        MOSUNNY   71  49  44 CALM      30.45F
MARION*        SUNNY     74  43  33 W8G26     30.45F
HILLSVILLE*    MOSUNNY   68  46  45 SE7       30.46F
RICHLANDS*     FAIR      71  43  35 SE3       30.43F
WISE*          SUNNY     72  36  26 S6        30.43F
ABINGDON*      SUNNY     75  39  28 CALM      30.41F
$$

MDZ021>025-VAZ099-100-231900-
SOUTHERN MARYLAND AND THE DELMARVA PENINSULA

CITY           SKY/WX    TMP DP  RH WIND       PRES   REMARKS
PATUXENT RIVER MOSUNNY   67  29  24 NE8       30.45F
BAY BRIDGE APT   N/A    N/A N/A N/A W3        30.44F
LEONARDTOWN    SUNNY     66  32  28 E3        30.45F
DOVER          SUNNY     66  37  33 VRB2      30.39F
GEORGETOWN     SUNNY     66  30  26 W8        30.43F
EASTON         MOSUNNY   66  34  30 VRB6      30.47F
CAMBRIDGE      SUNNY     68  32  26 N8        30.43F
SALISBURY      SUNNY     68  30  24 W7        30.42F
OCEAN CITY     SUNNY     60  41  49 E8        30.45F
WALLOPS ISLAND SUNNY     64  48  56 SE9       30.44F
ACCOMACK*      SUNNY     68  37  32 CALM      30.44S
$$

NCZ012>017-030>032-231900-
NORTH CENTRAL AND EASTERN NORTH CAROLINA

CITY           SKY/WX    TMP DP  RH WIND       PRES   REMARKS
ROANOKE RAPIDS FAIR      72  45  37 CALM      30.43F
RALEIGH        MOSUNNY   75  48  38 E3        30.43S
ELIZABETH CITY SUNNY     70  46  42 E13       30.44F
AHOSKIE*       SUNNY     73  47  39 N5        30.43S
EDENTON*       SUNNY     74  48  39 E14       30.43S
CURRITUCK*     SUNNY     67  42  39 NE10      30.45F
KILL DEVIL HLS SUNNY     66  50  57 N10       30.43F
MANTEO         SUNNY     66  48  52 NE13      30.44F
CAPE HATTERAS  SUNNY     70  54  56 NE12G18   30.42F
TARBORO*       FAIR      78  50  38 N6        30.42F
GOLDSBORO      SUNNY    N/A N/A N/A MISG        N/A
WASHINGTON     SUNNY     75  50  40 NE12      30.41F
GREENVILLE     SUNNY     77  52  41 SE6       30.41F
NEW BERN       SUNNY     80  49  33 NE6       30.41F
WILMINGTON     SUNNY     78  42  27 E9G17     30.40F
$$

VAZ048-231900-
ELSEWHERE

CITY           SKY/WX    TMP DP  RH WIND       PRES   REMARKS
HARRISBURG PA  SUNNY     65  29  25 NW8       30.41F
BALTIMORE      MOSUNNY   68  32  26 NW6       30.42F
ANNAPOLIS      SUNNY     62  36  37 SE10      30.44F
ANDREWS AFB    SUNNY     67  30  25 VRB1      30.42F
PHILADELPHIA   SUNNY     65  28  24 S8        30.42F
HENDERSON NC   MOSUNNY   73  41  31 N3        30.44S
GREENSBORO     MOSUNNY   75  47  36 E5        30.42F
ROCKY MOUNT    SUNNY     78  49  35 NE7       30.42F
$$

VAZ100-231900-
MARINE

STATION/POSITION TIME  TEMP    WIND        PRES    WAVE   SWELL
                       AIR SEA DIR/SP/G            HT/PER HT/PER
                 (UTC) (F)     (DEG/KT/KT) (MB)    (FT/S) (FT/S)
BRANDYWINE LGT   1700   57 63   10/  9/ 11 1031.2F
CAPE MAY NJ      1700   61 66  300/  6/ 10 1030.9F
LEWES DE         1700   57 62   10/ 10/ 11 1030.9F
15NM E FENWICK I 1750   56 59              1030.7F   3/ 6
OCEAN-CITY-INLET 1700   58 60  100/  6/  9 1031.0F
WACHAPREAGUE VA  1700   61 67   60/  9/ 11 1031.2F
THOMAS POINT MD  1800   62 65  140/  5/  6 1031.4F
GOOSES REEF MD   1800   60 65   80/  6/  8 1031.9F   2/ 3
SOLOMONS ISLAND  1700      68                N/A
BISHOPS HEAD MD  1700   62 68  240/  6/  7 1030.9F
PINEY POINT MD   1700          240/  3/  4   N/A
CAMBRIDGE MD     1700   62 69  320/  4/  8 1031.1F
LEWISETTA VA     1700   62 68              1031.2F
RAPPAHANNOCK LGT 1700          360/  7/  9 1031.9F
STINGRAY PT      1800   62 70   70/  6/  8 1030.8F   1/ 2
YORK RVR RNG VA  1700   63      80/ 11/ 12 1030.8F
YORKTOWN VA      1700   65 70  100/  9/ 11 1031.1F
JAMESTOWN VA     1700   67 74  270/  2/  6 1030.3F
DOMINION TERM VA 1700   65      80/ 12/ 16 1031.3F
KIPTOPEKE VA     1700      72  330/ 12/ 13   N/A
CHES BAY BRIDGE  1700   62 67   60/  7/  9 1031.1S
CAPE HENRY VA    1700   62      70/  8/  9 1030.2S
CHESAPEAKE LGHT  1700   59      50/ 11/ 12 1032.1F
WILLOUBY STN VA  1700   63      40/ 10/ 12 1032.0F
CAPE HENRY BUOY  1728      62                N/A     2/ 4
1ST LANDING BUOY 1800      68              1030.9F
CAPE CHARLES BUO 1726      64                N/A     2/ 4   2/ 8
OFFSHORE WE BUOY 1711      60                N/A     3/ 4   2/ 7
64NM E OF VA BCH 1750   60 60   10/ 14/ 16 1030.2F   3/ 5   2/ 8
DUCK PIER NC     1700   61 64   20/ 15/ 16 1030.0F
44100 DUCK FRF   1724      60                N/A     3/ 4
44056 DUCK FRF   1711      63                N/A     2/ 8
OREGON INLET NC  1700   64 70   10/ 13/ 18 1030.7R
HATTERAS NC      1700   68 72   40/ 11/ 15 1029.9R
DIAMOND SHLS NC  1750   68 78   30/ 14/ 16 1029.8R   3/ 9   2/ 9
CAPE LOOKOUT NC  1800   71      60/ 14/ 15 1029.5F
$$


USA.gov is the U.S. government's official web portal to all federal, state and local government web resources and services.